Notices

What's New in latest Release from April 7th, 2021:

- Updated Glossary, including Speed of Maximum Gust, and Total Hourly Precipitation

- Updated national and regional climate services offices contacts and prices information

- Addition of station inventory lists for 1981-2010, 1971-2000, and 1961-1990 Normals.

If you haven't already, please take our survey and provide feedback about our website: https://eccc.sondage-survey.ca/f/LanguageSelection.aspx?s=442ca660-fcf1-47c0-95a9-59707d6fd709

Hourly Data Report for September 28, 2015

IQALUIT CLIMATE
NUNAVUT

63°44'50.000" N
68°32'40.000" W
33.50 m
2402592
71321
XFB

Download Data

Hourly Data (September 2015)
Hourly Data Report for September 28, 2015
TIME
LST
Temp Definition
°C
Dew Point Definition
°C
Rel Hum Definition
%
Precip. Amount Definition
mm

Wind Dir Definition
10's deg

Wind Spd Definition
km/h
Visibility Definition
km
Stn Press Definition
kPa
Hmdx Definition


Wind Chill Definition


Weather Definition


00:00 0.0 -1.2 91 0.0 24 2   99.01   -1 LegendNANA
01:00 -0.2 -1.4 92 0.0 31 3   99.02   -1 LegendNANA
02:00 -0.1 -1.3 92 0.0 0 1   99.02   0 LegendNANA
03:00 0.1 -1.2 91 0.0 32 5   99.05     LegendNANA
04:00 0.1 -1.2 91 0.0 33 7   99.05     LegendNANA
05:00 0.1 -1.3 91 0.0 36 5   99.06     LegendNANA
06:00 0.8 -1.1 87 0.0 13 1   99.10     LegendNANA
07:00 0.9 -1.0 87 0.0   0   99.14     LegendNANA
08:00 1.7 -0.6 85 0.0 35 2   99.16     LegendNANA
09:00 1.7 -0.3 86 0.0 15 3   99.18     LegendNANA
10:00 2.0 -0.3 84 0.0 18 2   99.20     LegendNANA
11:00 2.5 -0.5 81 0.0 25 4   99.20     LegendNANA
12:00 2.8 -0.3 80 0.0 16 4   99.23     LegendNANA
13:00 2.8 -0.2 81 0.0 15 6   99.24     LegendNANA
14:00 3.1 0.2 82 0.0 14 9   99.26     LegendNANA
15:00 2.6 -0.1 83 0.0 16 8   99.28     LegendNANA
16:00 2.5 -0.4 82 0.0 18 6   99.31     LegendNANA
17:00 1.3 -0.5 88 0.0 14 8   99.34     LegendNANA
18:00 0.7 -0.7 91 0.0 16 3   99.30     LegendNANA
19:00 1.3 -0.9 85 0.0 16 5   99.34     LegendNANA
20:00 0.4 -0.9 91 0.0 15 3   99.39     LegendNANA
21:00 0.6 -0.5 93 0.0 14 9   99.40     LegendNANA
22:00 0.2 -0.6 95 0.0 15 7   99.37     LegendNANA
23:00 0.8 -0.8 89 0.0 14 11   99.37     LegendNANA

Notes on Data Quality.

Legend

  • E = Estimated
  • M = Missing
  • NA = Not Available*
  • [empty] = Indicates an unobserved value
Date modified: